Williston, ND

10:02 AM CST on December 06, 2019 (GMT -0600)
Sloulin International

Weather History for KISN - September, 2019

Change the Weather History Date:

Tuesday, September 17, 2019

  Actual Average Record
Temperature  
Mean Temperature 69 °F 56 °F  
Max Temperature 82 °F 71 °F 96 °F (2000)
Min Temperature 55 °F 41 °F 18 °F (1902)
Degree Days  
Heating Degree Days 0 10  
Month to date heating degree days 68 112  
Since 1 July heating degree days 116 183  
Cooling Degree Days 4 1  
Month to date cooling degree days 20 24  
Year to date cooling degree days 397 453  
Growing Degree Days 18 (Base 50)    
Moisture  
Dew Point 61 °F    
Average Humidity 76    
Maximum Humidity 100    
Minimum Humidity 51    
Precipitation  
Precipitation 0.40 in 0.03 in 0.51 in (1977)
Month to date precipitation 6.53 0.61  
Year to date precipitation 18.15 11.73  
Sea Level Pressure  
Sea Level Pressure 29.55 in    
Wind  
Wind Speed 6 mph (WSW)    
Max Wind Speed 23 mph    
Max Gust Speed 54 mph    
Visibility 9 miles    
Events Rain , Thunderstorm    
T = Trace of Precipitation, MM = Missing Value Source: NWS Daily Summary

Daily Weather History Graph

Daily Weather History Graph

Search for Another Location

Airport or City:

Astronomy

Sep. 17, 2019 Rise Set
Actual Time 7:34 AM CDT 8:03 PM CDT
Civil Twilight 7:02 AM CDT 8:34 PM CDT
Nautical Twilight 6:25 AM CDT 9:11 PM CDT
Astronomical Twilight 5:47 AM CDT 9:49 PM CDT
Moon 9:53 PM CDT (9/17) 10:53 AM CDT (9/17)
Length of Visible Light 13h 31m
Length of Day
12h 29m
Waning Gibbous, 89% of the Moon is Illuminated
Sep 17
Waning Gibbous
Sep 21
Last Quarter
Sep 28
New
Oct 5
First Quarter
Oct 13
Full

Hourly Weather History & Observations

Time (CDT) Temp. Heat Index Dew Point Humidity Pressure Visibility Wind Dir Wind Speed Gust Speed Precip Events Conditions
12:52 AM 70.0 °F - 63.0 °F 78% 29.55 in 10.0 mi WSW 3.5 mph - N/A   Clear
1:52 AM 61.0 °F - 59.0 °F 93% 29.54 in 10.0 mi North 3.5 mph - N/A   Clear
2:52 AM 60.1 °F - 57.9 °F 93% 29.54 in 10.0 mi Calm Calm - N/A   Clear
3:52 AM 59.0 °F - 57.0 °F 93% 29.54 in 10.0 mi NNW 3.5 mph - N/A   Clear
4:52 AM 57.9 °F - 57.0 °F 97% 29.54 in 10.0 mi North 3.5 mph - N/A   Clear
5:52 AM 59.0 °F - 57.0 °F 93% 29.54 in 9.0 mi Calm Calm - N/A   Clear
6:52 AM 55.0 °F - 54.0 °F 96% 29.54 in 8.0 mi North 3.5 mph - N/A   Clear
7:52 AM 57.0 °F - 55.9 °F 96% 29.55 in 6.0 mi Calm Calm - N/A   Clear
8:52 AM 60.1 °F - 59.0 °F 96% 29.55 in 8.0 mi WSW 4.6 mph - N/A   Clear
9:52 AM 66.9 °F - 63.0 °F 87% 29.54 in 10.0 mi South 5.8 mph - N/A   Clear
10:52 AM 69.1 °F - 63.0 °F 81% 29.54 in 10.0 mi South 4.6 mph - N/A   Clear
11:52 AM 71.1 °F - 62.1 °F 73% 29.53 in 10.0 mi SE 3.5 mph - N/A   Clear
12:52 PM 73.9 °F - 63.0 °F 68% 29.53 in 10.0 mi SW 3.5 mph - N/A   Clear
1:52 PM 75.0 °F - 62.1 °F 64% 29.52 in 10.0 mi South 5.8 mph - N/A   Clear
2:52 PM 75.9 °F - 62.1 °F 62% 29.52 in 10.0 mi South 4.6 mph - N/A   Clear
3:52 PM 78.1 °F - 63.0 °F 60% 29.52 in 10.0 mi SSE 8.1 mph - N/A   Clear
4:52 PM 80.1 °F 81.2 °F 62.1 °F 54% 29.50 in 10.0 mi SSE 9.2 mph - N/A   Clear
5:52 PM 82.0 °F 83.0 °F 62.1 °F 51% 29.49 in 10.0 mi SSE 6.9 mph - N/A   Clear
6:52 PM 80.1 °F 81.7 °F 64.0 °F 58% 29.49 in 10.0 mi South 4.6 mph - N/A   Clear
7:52 PM 73.0 °F - 62.1 °F 68% 29.51 in 7.0 mi WNW 6.9 mph - N/A   Clear
8:52 PM 73.9 °F - 64.0 °F 71% 29.51 in 10.0 mi NW 11.5 mph - N/A   Clear
9:40 PM 68.0 °F - 57.9 °F 70% 29.63 in 8.0 mi North - - 0.00 in Rain , Thunderstorm Light Rain
9:48 PM 64.4 °F - 57.2 °F 77% 29.67 in 1.8 mi SSW 13.8 mph 38.0 mph 0.07 in Rain , Thunderstorm Heavy Rain
9:49 PM 63.0 °F - 59.0 °F 87% 29.66 in 1.5 mi SSW 9.2 mph 38.0 mph 0.12 in Rain , Thunderstorm Heavy Rain
9:58 PM 62.1 °F - 57.9 °F 86% 29.63 in - West 8.1 mph - 0.25 in Rain , Thunderstorm Rain
10:19 PM 64.9 °F - 60.1 °F 84% 29.56 in 10.0 mi WNW 19.6 mph 33.4 mph 0.28 in Rain Light Rain
10:52 PM 66.9 °F - 63.0 °F 87% 29.54 in 10.0 mi NNE 4.6 mph - 0.28 in   Clear
11:13 PM 66.0 °F - 63.0 °F 90% 29.57 in 10.0 mi SW 10.4 mph - N/A   Mostly Cloudy
11:23 PM 64.0 °F - 60.1 °F 87% 29.56 in 10.0 mi West 13.8 mph 21.9 mph N/A   Mostly Cloudy
11:34 PM 64.0 °F - 61.0 °F 90% 29.55 in 10.0 mi WNW 15.0 mph 24.2 mph N/A   Mostly Cloudy
11:52 PM 66.0 °F - 62.1 °F 87% 29.51 in 10.0 mi NW 17.3 mph 27.6 mph N/A   Partly Cloudy